Regional Weather Roundup
Issued by NWS Kansas City/Pleasant Hill, MO

Home | Current Version | Previous Version | Text Only | Print | Product List | Glossary On
Versions: 1 2 3 4 5 6 7 8 9 10 11 12 13 14 15 16 17 18 19 20 21 22 23 24 25 26 27 28 29 30 31 32 33 34 35 36 37 38 39 40 41 42 43 44 45 46 47 48 49 50
992
ASUS43 KEAX 270210
RWREAX

WEATHER ROUNDUP FOR EASTERN KANSAS AND NORTHWEST MISSOURI
NATIONAL WEATHER SERVICE KANSAS CITY/PLEASANT HILL MO
900 PM CDT FRI AUG 26 2016

KSZ040-057-103>105-MOZ028-029-037-043-270300-
...KANSAS CITY METROPOLITAN AREA...

CITY           SKY/WX    TMP DP  RH WIND       PRES   REMARKS
K.C. INTL      LGT RAIN  70  69  97 E7        30.01S
K.C. DOWNTOWN  TSTM      71  69  93 SE7G22    30.01R VSB 3/4
LEES SUMMIT    CLOUDY    78  71  79 E5        30.01R
OLATHE - IXD   TSTM      72  70  93 W9        30.01R FOG
OLATHE - OJC   CLOUDY    77  72  84 VRB3G18   30.00R
LAWRENCE       CLOUDY    70  70 100 CALM      30.00R

$$

MOZ001>008-011>017-020>025-030>033-038>040-044>046-053-054-270300-
...NORTHERN AND CENTRAL MISSOURI...

CITY           SKY/WX    TMP DP  RH WIND       PRES   REMARKS
ST. JOSEPH     CLOUDY    69  68  96 NW3       30.02R FOG
MOSBY          TSTM      70  68  94 NW7       30.02R
WHITEMAN AFB   MOCLDY    76  76 100 S2        30.00R
CLINTON        CLOUDY    75  72  88 CALM      30.00F
SEDALIA        CLOUDY    76  72  87 SE8       30.01F
WARSAW         NOT AVBL
CHILLICOTHE      N/A     75  71  87 E8        30.01F
KIRKSVILLE     PTCLDY    73  71  93 E10       30.05F

$$

MOZ041-047>049-056>058-063>065-088>090-097-270300-
...EASTERN AND SOUTHERN MISSOURI...

CITY           SKY/WX    TMP DP  RH WIND       PRES   REMARKS
ST. LOUIS INTL MOCLDY    84  68  58 S12       30.05S
SPIRIT OF STL  CLOUDY    81  73  76 SE6       30.03S
COLUMBIA       CLOUDY    76  74  93 E6        30.04S
JEFFERSON CITY CLOUDY    79  74  84 SE6       30.01F
ROLLA          CLOUDY    72  69  90 CALM      30.06R
OSAGE BEACH    CLOUDY    77  75  93 SE5       30.05S
SPRINGFIELD    CLOUDY    77  71  82 SE7       30.04F
BRANSON        CLOUDY    75  73  94 CALM      30.09R
JOPLIN         PTCLDY    75  70  84 S7        30.02F
WEST PLAINS    CLOUDY    79  71  76 SE7       30.09S

$$

IAZ060-094-KSZ022-034>040-054-083-096-NEZ052-066-093-270300-
...KANSAS...SOUTHEAST NEBRASKA AND IOWA...

CITY           SKY/WX    TMP DP  RH WIND       PRES   REMARKS
TOPEKA         CLOUDY    72  69  90 NE3       30.00R
MANHATTAN      CLEAR     73  68  84 NW3       30.01R
EMPORIA        CLOUDY    75  69  81 S3        30.00R
CHANUTE        CLOUDY    73  70  90 S6        30.01R
WICHITA        PTCLDY    77  67  71 SE6       30.00R
OMAHA          CLOUDY    68  62  81 NE9       30.06R
LINCOLN        CLOUDY    68  65  90 E8        30.06R
FALLS CITY     PTCLDY    70  69  97 CALM      30.02R
LAMONI         LGT RAIN  69  68  96 NE6       30.05R
DES MOINES     LGT RAIN  69  65  86 E10       30.07R

$$





USA.gov is the U.S. government's official web portal to all federal, state and local government web resources and services.